| time (UTC) | temp F | wind direction | speed MPH | gust MPH | rain 1hr in | rain 24hr in | rain mn in | humidity % | barometer mb |
| 20260503030850 | 34 | 307 | 0.0 | 0.0 | 0.00 | 0.02 | 0.01 | 88 | 1014.8 |
| 20260503025850 | 34 | 307 | 0.0 | 0.0 | 0.00 | 0.03 | 0.01 | 87 | 1014.8 |
| 20260503024850 | 34 | 307 | 0.0 | 0.0 | 0.00 | 0.03 | 0.01 | 87 | 1014.9 |
| 20260503023849 | 34 | 307 | 0.0 | 1.0 | 0.00 | 0.03 | 0.01 | 87 | 1014.9 |
| 20260503022849 | 34 | 308 | 0.0 | 2.0 | 0.00 | 0.04 | 0.01 | 86 | 1015.0 |
| 20260503015848 | 35 | 300 | 2.0 | 2.0 | 0.00 | 0.06 | 0.01 | 83 | 1015.2 |
| 20260503012848 | 36 | 309 | 3.0 | 4.0 | 0.00 | 0.08 | 0.01 | 81 | 1014.9 |
| 20260503011847 | 37 | 17 | 0.0 | 1.0 | 0.00 | 0.09 | 0.01 | 80 | 1015.0 |
| 20260503010848 | 38 | 17 | 1.0 | 3.0 | 0.00 | 0.10 | 0.01 | 79 | 1015.0 |
| 20260503005847 | 38 | 17 | 0.0 | 4.0 | 0.00 | 0.11 | 0.01 | 78 | 1014.6 |
| 20260503004847 | 39 | 360 | 2.0 | 5.0 | 0.00 | 0.11 | 0.01 | 77 | 1014.7 |
| 20260503003847 | 39 | 343 | 4.0 | 10.0 | 0.00 | 0.12 | 0.01 | 76 | 1014.5 |
| 20260503002847 | 39 | 292 | 2.0 | 5.0 | 0.00 | 0.13 | 0.01 | 76 | 1014.6 |
| 20260503001847 | 39 | 301 | 4.0 | 11.0 | 0.00 | 0.15 | 0.01 | 75 | 1014.6 |
| 20260503000846 | 39 | 286 | 3.0 | 7.0 | 0.00 | 0.16 | 0.01 | 74 | 1014.7 |
| 20260502235847 | 40 | 238 | 1.0 | 10.0 | 0.00 | 0.17 | 0.01 | 73 | 1014.6 |
| 20260502234846 | 40 | 308 | 1.0 | 8.0 | 0.00 | 0.19 | 0.01 | 73 | 1014.5 |
| 20260502233846 | 40 | 313 | 5.0 | 11.0 | 0.00 | 0.20 | 0.01 | 73 | 1014.5 |
| 20260502231846 | 40 | 289 | 2.0 | 9.0 | 0.00 | 0.20 | 0.01 | 76 | 1014.3 |
| 20260502230846 | 41 | 310 | 7.0 | 10.0 | 0.00 | 0.20 | 0.01 | 76 | 1014.4 |
| 20260502225846 | 41 | 322 | 5.0 | 9.0 | 0.00 | 0.20 | 0.01 | 76 | 1014.5 |
| 20260502224845 | 41 | 327 | 2.0 | 9.0 | 0.00 | 0.20 | 0.01 | 76 | 1014.4 |
| 20260502223845 | 41 | 317 | 2.0 | 11.0 | 0.00 | 0.20 | 0.01 | 75 | 1014.4 |
| 20260502221844 | 41 | 313 | 8.0 | 13.0 | 0.00 | 0.20 | 0.01 | 72 | 1014.0 |
| 20260502220844 | 42 | 329 | 8.0 | 10.0 | 0.00 | 0.20 | 0.01 | 71 | 1014.0 |
| 20260502215844 | 42 | 310 | 10.0 | 10.0 | 0.00 | 0.20 | 0.01 | 70 | 1014.0 |
| 20260502214844 | 42 | 321 | 5.0 | 13.0 | 0.00 | 0.20 | 0.01 | 71 | 1014.1 |
| 20260502213844 | 42 | 360 | 3.0 | 11.0 | 0.00 | 0.20 | 0.01 | 72 | 1014.0 |
| 20260502212844 | 42 | 348 | 6.0 | 12.0 | 0.00 | 0.20 | 0.01 | 73 | 1013.9 |
| 20260502210843 | 42 | 322 | 6.0 | 12.0 | 0.00 | 0.20 | 0.01 | 72 | 1013.9 |
| 20260502205843 | 42 | 327 | 6.0 | 11.0 | 0.00 | 0.20 | 0.01 | 73 | 1013.9 |
| 20260502204843 | 42 | 324 | 6.0 | 9.0 | 0.00 | 0.20 | 0.01 | 72 | 1014.0 |
| 20260502203843 | 42 | 11 | 7.0 | 11.0 | 0.00 | 0.20 | 0.01 | 71 | 1014.0 |
| 20260502202842 | 43 | 355 | 6.0 | 12.0 | 0.00 | 0.20 | 0.01 | 71 | 1014.2 |
| 20260502201843 | 43 | 338 | 5.0 | 12.0 | 0.00 | 0.20 | 0.01 | 68 | 1013.9 |
| 20260502195842 | 43 | 311 | 3.0 | 12.0 | 0.00 | 0.20 | 0.01 | 65 | 1014.2 |
| 20260502194842 | 43 | 304 | 5.0 | 10.0 | 0.00 | 0.20 | 0.01 | 65 | 1014.1 |
| 20260502193842 | 43 | 266 | 6.0 | 14.0 | 0.00 | 0.20 | 0.01 | 64 | 1014.1 |
| 20260502192842 | 43 | 313 | 6.0 | 13.0 | 0.00 | 0.20 | 0.01 | 64 | 1014.3 |
| 20260502191842 | 43 | 294 | 7.0 | 18.0 | 0.00 | 0.20 | 0.01 | 64 | 1014.3 |
| 20260502185841 | 43 | 328 | 0.0 | 11.0 | 0.00 | 0.20 | 0.01 | 64 | 1014.4 |
| 20260502184841 | 43 | 297 | 5.0 | 8.0 | 0.00 | 0.20 | 0.01 | 63 | 1014.4 |
| 20260502183841 | 43 | 287 | 3.0 | 11.0 | 0.00 | 0.20 | 0.01 | 63 | 1014.3 |
| 20260502182841 | 44 | 284 | 3.0 | 12.0 | 0.00 | 0.20 | 0.01 | 63 | 1014.4 |
| 20260502181841 | 44 | 345 | 6.0 | 15.0 | 0.00 | 0.20 | 0.01 | 64 | 1014.3 |
| 20260502163839 | 44 | 275 | 9.0 | 11.0 | 0.00 | 0.20 | 0.01 | 63 | 1014.6 |
| 20260502162909 | 43 | 315 | 1.0 | 10.0 | 0.00 | 0.20 | 0.01 | 64 | 1014.5 |
| 20260502161839 | 42 | 267 | 6.0 | 11.0 | 0.00 | 0.20 | 0.01 | 65 | 1014.7 |
| 20260502160839 | 42 | 28 | 3.0 | 13.0 | 0.00 | 0.20 | 0.01 | 67 | 1014.6 |
| 20260502151908 | 42 | 250 | 4.0 | 13.0 | 0.00 | 0.20 | 0.01 | 72 | 1014.4 |
| 20260502150838 | 42 | 337 | 11.0 | 17.0 | 0.00 | 0.20 | 0.01 | 73 | 1014.4 |
| 20260502122905 | 37 | 303 | 7.0 | 10.0 | 0.00 | 0.20 | 0.01 | 91 | 1015.1 |
| 20260502121905 | 36 | 304 | 10.0 | 13.0 | 0.00 | 0.20 | 0.01 | 90 | 1015.0 |
| 20260502120904 | 36 | 300 | 3.0 | 11.0 | 0.00 | 0.20 | 0.01 | 91 | 1015.0 |
| 20260502115904 | 36 | 313 | 0.0 | 11.0 | 0.00 | 0.20 | 0.01 | 91 | 1015.0 |
| 20260502114904 | 37 | 269 | 2.0 | 8.0 | 0.00 | 0.20 | 0.01 | 92 | 1015.1 |
| 20260502113904 | 37 | 350 | 3.0 | 11.0 | 0.00 | 0.20 | 0.01 | 92 | 1015.1 |
| 20260502112904 | 37 | 320 | 10.0 | 13.0 | 0.00 | 0.20 | 0.01 | 93 | 1014.9 |
| 20260502111904 | 37 | 270 | 1.0 | 6.0 | 0.00 | 0.20 | 0.01 | 93 | 1014.7 |
| 20260502110903 | 37 | 281 | 1.0 | 11.0 | 0.00 | 0.20 | 0.01 | 93 | 1014.6 |
| 20260502105903 | 37 | 292 | 4.0 | 10.0 | 0.00 | 0.20 | 0.01 | 94 | 1014.5 |
| 20260502104903 | 37 | 292 | 4.0 | 12.0 | 0.00 | 0.20 | 0.01 | 93 | 1014.4 |
| 20260502103903 | 37 | 322 | 2.0 | 15.0 | 0.00 | 0.20 | 0.01 | 94 | 1014.4 |
| 20260502102903 | 37 | 292 | 15.0 | 15.0 | 0.00 | 0.20 | 0.01 | 94 | 1014.2 |
| 20260502100902 | 38 | 5 | 2.0 | 6.0 | 0.00 | 0.20 | 0.01 | 95 | 1014.1 |
| 20260502090901 | 37 | 26 | 1.0 | 5.0 | 0.00 | 0.20 | 0.01 | 96 | 1013.6 |
| 20260502070859 | 38 | 218 | 3.0 | 5.0 | 0.00 | 0.20 | 0.01 | 97 | 1013.6 |
| 20260502065859 | 38 | 264 | 2.0 | 6.0 | 0.00 | 0.20 | 0.01 | 98 | 1013.7 |
| 20260502062859 | 37 | 272 | 4.0 | 7.0 | 0.00 | 0.20 | 0.01 | 98 | 1013.5 |
| 20260502061858 | 38 | 171 | 0.0 | 4.0 | 0.00 | 0.20 | 0.01 | 97 | 1013.7 |
| 20260502055858 | 38 | 20 | 0.0 | 0.0 | 0.00 | 0.20 | 0.01 | 97 | 1013.7 |
| 20260502054858 | 38 | 20 | 0.0 | 2.0 | 0.00 | 0.20 | 0.01 | 97 | 1013.8 |
| 20260502053858 | 38 | 20 | 0.0 | 3.0 | 0.01 | 0.20 | 0.01 | 97 | 1013.8 |
| 20260502052858 | 38 | 22 | 0.0 | 0.0 | 0.01 | 0.20 | 0.01 | 97 | 1014.0 |
| 20260502051858 | 38 | 22 | 0.0 | 2.0 | 0.01 | 0.20 | 0.01 | 97 | 1014.1 |
| 20260502050857 | 38 | 355 | 0.0 | 3.0 | 0.01 | 0.20 | 0.01 | 97 | 1014.1 |
| 20260502045857 | 38 | 349 | 1.0 | 6.0 | 0.01 | 0.20 | 0.01 | 97 | 1014.1 |
| 20260502044857 | 38 | 331 | 3.0 | 8.0 | 0.01 | 0.20 | 0.01 | 97 | 1014.2 |
| 20260502043857 | 38 | 326 | 5.0 | 5.0 | 0.00 | 0.19 | 0.00 | 97 | 1014.1 |
| 20260502042856 | 38 | 5 | 3.0 | 4.0 | 0.01 | 0.19 | 0.00 | 97 | 1014.1 |
| 20260502041857 | 38 | 17 | 2.0 | 5.0 | 0.01 | 0.19 | 0.00 | 97 | 1013.9 |
| 20260502040856 | 38 | 5 | 2.0 | 3.0 | 0.01 | 0.19 | 0.00 | 97 | 1013.8 |
| 20260502035856 | 38 | 9 | 2.0 | 5.0 | 0.02 | 0.19 | 0.19 | 97 | 1013.7 |
| 20260502034856 | 38 | 13 | 3.0 | 4.0 | 0.02 | 0.19 | 0.19 | 96 | 1013.6 |